Weather History for Grove, OK

Change the Weather History Date:

Thursday, November 29, 2012

  Actual Average (KSLG) Record (KSLG)
Temperature  
Mean Temperature 50 °F -  
Max Temperature 68 °F 51 °F 71 °F (2006)
Min Temperature 32 °F 34 °F 17 °F (2003)
Degree Days  
Heating Degree Days 15    
Moisture  
Dew Point 34 °F    
Average Humidity 57    
Maximum Humidity 100    
Minimum Humidity 28    
Precipitation  
Precipitation 0.00 in - - ()
Sea Level Pressure  
Sea Level Pressure 30.14 in    
Wind  
Wind Speed 6 mph (SSE)    
Max Wind Speed 22 mph    
Max Gust Speed 29 mph    
Visibility 10 miles    
Events      
Averages and records for this station are not official NWS values.
T = Trace of Precipitation, MM = Missing Value Source: NWS Daily Summary

Daily Weather History Graph

Daily Weather History Graph

Search for Another Location

Airport:

Trip Planner

Search our weather history database for the weather conditions in past years. The results will help you decide how hot, cold, wet, or windy it might be!

Date:

Astronomy

Nov. 29, 2012 Rise Set
Actual Time 7:11 AM CST 5:03 PM CST
Civil Twilight 6:42 AM CST 5:31 PM CST
Nautical Twilight 6:10 AM CST 6:03 PM CST
Astronomical Twilight 5:39 AM CST 6:34 PM CST
Moon 6:07 PM CST (11/29) 7:58 AM CST (11/29)
Length of Visible Light 10h 49m
Length of Day
9h 52m
Full, 99% of the Moon is Illuminated
Nov 29
Full
Dec 6
Last Quarter
Dec 13
New
Dec 19
First Quarter
Dec 28
Full

Hourly Weather History & Observations

Time (CST) Temp. Windchill Dew Point Humidity Pressure Visibility Wind Dir Wind Speed Gust Speed Precip Events Conditions
12:15 AM 39.2 °F 37.0 °F 32.0 °F 75% 30.24 in 10.0 mi East 3.5 mph - N/A   Clear
12:35 AM 37.4 °F - 32.0 °F 81% 30.23 in 10.0 mi Calm Calm - N/A   Clear
12:55 AM 35.6 °F 32.8 °F 32.0 °F 87% 30.23 in 10.0 mi East 3.5 mph - N/A   Clear
1:15 AM 35.6 °F - 32.0 °F 87% 30.23 in 10.0 mi Calm Calm - N/A   Clear
1:35 AM 35.6 °F - 32.0 °F 87% 30.23 in 10.0 mi Calm Calm - N/A   Clear
1:55 AM 35.6 °F 32.8 °F 32.0 °F 87% 30.23 in 10.0 mi ESE 3.5 mph - N/A   Clear
2:15 AM 35.6 °F - 32.0 °F 87% 30.23 in 10.0 mi Calm Calm - N/A   Clear
2:35 AM 33.8 °F - 32.0 °F 93% 30.23 in 10.0 mi Calm Calm - N/A   Clear
2:55 AM 32.0 °F 28.7 °F 32.0 °F 100% 30.23 in 10.0 mi ESE 3.5 mph - N/A   Clear
3:15 AM 35.6 °F 31.7 °F 32.0 °F 87% 30.22 in 10.0 mi East 4.6 mph - N/A   Clear
3:35 AM 33.8 °F 30.8 °F 32.0 °F 93% 30.21 in 10.0 mi East 3.5 mph - N/A   Clear
3:55 AM 35.6 °F 32.8 °F 32.0 °F 87% 30.20 in 10.0 mi ESE 3.5 mph - N/A   Clear
4:15 AM 35.6 °F - 32.0 °F 87% 30.21 in 10.0 mi Calm Calm - N/A   Clear
4:35 AM 33.8 °F - 32.0 °F 93% 30.20 in 10.0 mi Calm Calm - N/A   Clear
4:55 AM 32.0 °F - 32.0 °F 100% 30.20 in 10.0 mi Calm Calm - N/A   Clear
5:15 AM 33.8 °F - 33.8 °F 100% 30.20 in 10.0 mi Calm Calm - N/A   Clear
5:55 AM 35.6 °F - 32.0 °F 87% 30.21 in 10.0 mi Calm Calm - N/A   Clear
6:15 AM 35.6 °F - 32.0 °F 87% 30.20 in 10.0 mi Calm Calm - N/A   Clear
6:35 AM 41.0 °F - 33.8 °F 76% 30.20 in 10.0 mi Calm Calm - N/A   Clear
6:55 AM 41.0 °F - 33.8 °F 76% 30.19 in 10.0 mi Calm Calm - N/A   Clear
7:15 AM 44.6 °F 41.4 °F 33.8 °F 66% 30.19 in 10.0 mi SSE 5.8 mph - N/A   Clear
7:35 AM 44.6 °F - 33.8 °F 66% 30.19 in 10.0 mi Calm Calm - N/A   Clear
7:55 AM 46.4 °F 42.9 °F 35.6 °F 66% 30.19 in 10.0 mi South 6.9 mph - N/A   Clear
8:15 AM 48.2 °F - 35.6 °F 62% 30.19 in 10.0 mi South 11.5 mph - N/A   Clear
8:35 AM 50.0 °F - 35.6 °F 58% 30.19 in 10.0 mi South 13.8 mph - N/A   Clear
8:55 AM 51.8 °F - 35.6 °F 54% 30.18 in 10.0 mi South 15.0 mph 20.7 mph N/A   Clear
9:15 AM 53.6 °F - 35.6 °F 51% 30.18 in 10.0 mi South 13.8 mph 20.7 mph N/A   Clear
9:35 AM 55.4 °F - 37.4 °F 51% 30.18 in 10.0 mi South 18.4 mph 25.3 mph N/A   Clear
9:55 AM 55.4 °F - 37.4 °F 51% 30.18 in 10.0 mi South 16.1 mph 21.9 mph N/A   Clear
10:15 AM 57.2 °F - 37.4 °F 48% 30.18 in 10.0 mi South 11.5 mph 15.0 mph N/A   Clear
10:35 AM 59.0 °F - 37.4 °F 45% 30.17 in 10.0 mi South 13.8 mph - N/A   Clear
10:55 AM 60.8 °F - 37.4 °F 42% 30.17 in 10.0 mi South 17.3 mph 20.7 mph N/A   Clear
11:15 AM 62.6 °F - 37.4 °F 39% 30.16 in 10.0 mi South 18.4 mph 21.9 mph N/A   Clear
11:35 AM 62.6 °F - 37.4 °F 39% 30.15 in 10.0 mi South 13.8 mph 24.2 mph N/A   Clear
11:55 AM 64.4 °F - 37.4 °F 37% 30.13 in 10.0 mi South 18.4 mph 21.9 mph N/A   Clear
12:15 PM 64.4 °F - 37.4 °F 37% 30.13 in 10.0 mi South 16.1 mph - N/A   Clear
12:35 PM 64.4 °F - 37.4 °F 37% 30.12 in 10.0 mi South 17.3 mph 27.6 mph N/A   Clear
12:55 PM 66.2 °F - 35.6 °F 32% 30.11 in 10.0 mi SSW 19.6 mph 28.8 mph N/A   Clear
1:15 PM 68.0 °F - 35.6 °F 30% 30.11 in 10.0 mi South 19.6 mph 25.3 mph N/A   Clear
1:35 PM 68.0 °F - 33.8 °F 28% 30.10 in 10.0 mi SSW 15.0 mph 23.0 mph N/A   Clear
1:55 PM 68.0 °F - 33.8 °F 28% 30.10 in 10.0 mi SSW 17.3 mph 24.2 mph N/A   Clear
2:15 PM 68.0 °F - 33.8 °F 28% 30.09 in 10.0 mi SSW 19.6 mph 26.5 mph N/A   Clear
2:35 PM 68.0 °F - 33.8 °F 28% 30.08 in 10.0 mi South 21.9 mph 25.3 mph N/A   Clear
2:55 PM 68.0 °F - 33.8 °F 28% 30.08 in 10.0 mi South 15.0 mph 18.4 mph N/A   Clear
3:15 PM 68.0 °F - 35.6 °F 30% 30.08 in 10.0 mi South 13.8 mph 24.2 mph N/A   Clear
3:35 PM 66.2 °F - 35.6 °F 32% 30.07 in 10.0 mi South 11.5 mph - N/A   Clear
3:55 PM 66.2 °F - 35.6 °F 32% 30.07 in 10.0 mi South 13.8 mph - N/A   Clear
4:15 PM 64.4 °F - 35.6 °F 34% 30.07 in 10.0 mi South 11.5 mph - N/A   Clear
4:35 PM 62.6 °F - 35.6 °F 37% 30.07 in 10.0 mi SSE 8.1 mph - N/A   Clear
4:55 PM 60.8 °F - 35.6 °F 39% 30.07 in 10.0 mi SSE 8.1 mph - N/A   Clear
5:15 PM 59.0 °F - 33.8 °F 39% 30.06 in 10.0 mi SE 5.8 mph - N/A   Clear
5:35 PM 57.2 °F - 35.6 °F 44% 30.06 in 10.0 mi SSE 9.2 mph - N/A   Clear
5:55 PM 57.2 °F - 35.6 °F 44% 30.05 in 10.0 mi SSE 10.4 mph - N/A   Clear
6:15 PM 57.2 °F - 33.8 °F 41% 30.06 in 10.0 mi SSE 8.1 mph - N/A   Clear
6:35 PM 59.0 °F - 33.8 °F 39% 30.06 in 10.0 mi SSE 10.4 mph - N/A   Clear
6:55 PM 55.4 °F - 32.0 °F 41% 30.05 in 10.0 mi SE 8.1 mph - N/A   Clear
7:15 PM 55.4 °F - 33.8 °F 44% 30.05 in 10.0 mi SSE 9.2 mph - N/A   Clear
7:35 PM 55.4 °F - 33.8 °F 44% 30.05 in 10.0 mi SSE 6.9 mph 16.1 mph N/A   Clear
7:55 PM 53.6 °F - 33.8 °F 47% 30.06 in 10.0 mi SSE 5.8 mph - N/A   Clear
8:15 PM 53.6 °F - 32.0 °F 44% 30.07 in 10.0 mi South 3.5 mph - N/A   Clear
8:35 PM 51.8 °F - 32.0 °F 47% 30.08 in 10.0 mi SSW 4.6 mph - N/A   Clear
8:55 PM 51.8 °F - 32.0 °F 47% 30.10 in 10.0 mi Calm Calm - N/A   Clear
9:15 PM 50.0 °F - 32.0 °F 50% 30.11 in 10.0 mi Calm Calm - N/A   Clear
9:35 PM 51.8 °F - 32.0 °F 47% 30.11 in 10.0 mi Calm Calm - N/A   Clear
9:55 PM 50.0 °F - 32.0 °F 50% 30.12 in 10.0 mi Calm Calm - N/A   Clear
10:15 PM 46.4 °F - 32.0 °F 57% 30.12 in 10.0 mi Calm Calm - N/A   Clear
10:35 PM 44.6 °F - 32.0 °F 61% 30.12 in 10.0 mi Calm Calm - N/A   Clear
10:55 PM 42.8 °F 39.3 °F 32.0 °F 66% 30.12 in 10.0 mi SE 5.8 mph - N/A   Clear
11:15 PM 42.8 °F 41.1 °F 32.0 °F 66% 30.12 in 10.0 mi SE 3.5 mph - N/A   Clear
11:35 PM 42.8 °F - 33.8 °F 70% 30.13 in 10.0 mi Calm Calm - N/A   Clear
11:55 PM 41.0 °F - 32.0 °F 70% 30.13 in 10.0 mi Calm Calm - N/A   Clear